星链-35120(STARLINK-35120)

导读 | 豆包AI

STARLINK-35120是美国SpaceX星链星座的一员,于2025年9月19日发射入轨。星链计划旨在构建全球卫星互联网星座,为全球偏远地区及地面网络覆盖不足区域提供高速宽带互联网接入服务。该卫星加入后将进一步扩展星链星座规模,提升全球覆盖能力与服务稳定性。

基本信息
目录编号:
65659
目录名称:
STARLINK-35120
国际标识:
2025-211H
轨道中心:
EARTH
卫星名称:
星链-35120
卫星全名:
星链-35120(STARLINK-35120)
卫星状态:
在轨 (已飞行197 天)
发射日期:
2025-09-19 UTC
国别 :
美国 (US)
星等 :
--
轨道信息
数据来源 国际轨道数据 AOE轨道数据
星历时间 2026-04-04T05:30:26+0800
13小时前
查看轨道信息
2026-04-02T22:00:00+0800
1天前
查看轨道信息
半长轴 6927.661km 6927.66km
偏心率 0.0001904 0.0002245
轨道倾角 97.601° 97.603°
近地点辐角 117.798° 126.562°
升交点赤经 138.896° 137.603°
平近点角 242.344° 322.234°
近地点 548.204km 547.967km
远地点 550.844km 551.079km
周期 95.640分钟 95.640分钟
每日圈数 15.05646 15.056464
详细信息
固有亮度:
5
最大亮度:
2.5
卫星平台:
Starlink V1.0
覆盖范围:
全球
运营商:
太空探索技术公司
运营商所在国:
美国
制造商(研发单位):
太空探索技术公司
制造商所在国:
美国
使用方式:
暂无
卫星简介
Starlink 计划是 SpaceX 推出的全球卫星互联网项目,通过发射低轨道卫星,为全球尤其是偏远地区提供高速、低延迟的互联网服务。自 2019 年起,Starlink 已部署数千颗卫星,旨在缩小全球数字鸿沟,推动互联网普及。该项目还为军事、航空等行业提供通信支持,带来广泛经济效益。
2D轨道图
3D轨道图
轨道高度分析图
轨道倾角分析图
轨道综合分析图
查看轨道综合分析图